Regional Weather Roundup
Issued by NWS New Orleans/Baton Rouge, LA

Home | Current Version | Previous Version | Text Only | Print | Product List | Glossary On
Versions: 1 2 3 4 5 6 7 8 9 10 11 12 13 14 15 16 17 18 19 20 21 22 23 24 25 26 27 28 29 30 31 32 33 34 35 36 37 38 39 40 41 42 43 44 45 46 47 48 49 50
000
ASUS44 KLIX 021011
RWRLIX
NEW ORLEANS REGIONAL WEATHER ROUNDUP
NATIONAL WEATHER SERVICE NEW ORLEANS LA
500 AM CDT WED SEP 02 2015

NOTE: "FAIR" INDICATES FEW OR NO CLOUDS BELOW 12,000 FEET WITH NO
      SIGNIFICANT WEATHER AND/OR OBSTRUCTIONS TO VISIBILITY.
      SKY/WX - SKY CONDITION AND SIGNIFICANT WEATHER.
      TMP - AIR TEMPERATURE.     DP    - DEWPOINT TEMPERATURE.
      RH  - RELATIVE HUMIDITY.   PRES  - PRESSURE.
      HI  - HEAT INDEX.          WCI   - WIND CHILL INDEX.

*  THESE STATIONS ARE NOT NWS OR FAA STATIONS AND ARE NOT UNDER
   NWS QUALITY CONTROL.

LAZ038-040-048-061>063-065>067-069-021100-
SOUTHEAST LOUISIANA

CITY           SKY/WX    TMP DP  RH WIND       PRES   REMARKS
N.O. AUDUBON   NOT AVBL
N.O. INTL ARPT CLOUDY    80  71  74 CALM      30.03S
N.O. LAKEFRONT CLOUDY    81  70  69 CALM      30.04S
N.O. DOWNTOWN*   N/A     82  72  69 CALM      30.04S
RESERVE*         N/A     77  73  88 CALM      30.04R
SLIDELL        CLOUDY    74  73  97 CALM      30.03R
BATON ROUGE    CLOUDY    76  72  87 NE3       30.03S
BOOTHVILLE     MOCLDY    82  76  81 E3        30.04S
BELLE CHASSE   MOCLDY    75  73  93 CALM      30.03S FOG
BOGALUSA*      NOT AVBL
GALLIANO*      PTSUNNY   74  73  97 CALM      30.03S
NEW ROADS*     DRIZZLE   75  73  94 CALM      30.03S
GONZALES*      PTSUNNY   75  75 100 CALM      30.03R
HAMMOND*       CLOUDY    75  70  83 CALM      30.05S
HOUMA*         CLOUDY    76  74  96 CALM      30.03S
PORT FOURCHON* SUNNY     84  73  70 E5        30.03S

$$

MSZ070-080>082-021100-
SOUTHERN MISSISSIPPI

CITY           SKY/WX    TMP DP  RH WIND       PRES   REMARKS
MCCOMB         CLOUDY    73  70  90 CALM      30.05S
GULFPORT       CLOUDY    76  73  91 CALM      30.03S
BILOXI         CLOUDY    78  74  89 N2        30.03S
PASCAGOULA     CLOUDY    70  70 100 CALM      30.04S FOG

$$

COASTAL OBSERVATIONS
LAKE AND NEARSHORE STATIONS

STATION/POSITION TIME  TEMP    WIND        PRES    WAVE
                       AIR SEA DIR/SP/G            HT/PER
                 (UTC) (F)     (DEG/KT/KT) (MB)    (FT/S)
PASCAGOULA       0900   78      10/  4/  5 1016.6
WAVELAND YACHT   0900   79 85  320/  1/  1 1017.3
GRAND ISLE       0900   83 86   CALM  /  3 1016.9
SOUTHWEST PASS   0900   84 86   90/  9/ 11 1017.0
NEW CANAL        0900   82 85  220/  2/  2 1016.2
SHELL BEACH      0900   82 86  150/  3/  3 1016.4

OFFSHORE STATIONS

STATION/POSITION TIME  TEMP    WIND        PRES    WAVE
                       AIR SEA DIR/SP/G            HT/PER
                 (UTC) (F)     (DEG/KT/KT) (MB)    (FT/S)
64 S DAUPHIN ISL 0950   83 85  130/  4/  4 1017.5    1/ 6

$$




USA.gov is the U.S. government's official web portal to all federal, state and local government web resources and services.